Regional Weather Roundup
Issued by NWS

Home | Current Version | Previous Version | Text Only | Print | Product List | Glossary On
Versions: 1 2 3 4 5 6 7 8 9 10 11 12 13 14 15 16 17 18 19 20 21 22 23 24 25 26 27 28 29 30 31 32 33 34 35 36 37 38 39 40 41 42 43 44 45 46 47 48 49
000
ASUS45 KCYS 030910
RWRWY

WYOMING REGIONAL WEATHER ROUNDUP
NATIONAL WEATHER SERVICE CHEYENNE WY
200 AM MST TUE MAR 03 2015

NOTE:  "FAIR" INDICATES FEW OR NO CLOUDS BELOW 12,000 FEET
WITH NO SIGNIFICANT WEATHER AND/OR OBSTRUCTIONS TO VISIBILITY.

WYZ001-031000-
YELLOWSTONE NATIONAL PARK

CITY           SKY/WX    TMP DP  RH WIND       PRES   REMARKS
LK YELLOWSTONE   N/A     11   6  81 VRB7      29.66R WCI   0
W YELLOWSTONE  NOT AVBL

$$
WYZ002>013-054>058-071-098>099-031000-
NORTHERN WYOMING

CITY           SKY/WX    TMP DP  RH WIND       PRES   REMARKS
JACKSON        CLOUDY    23  21  93 CALM      29.64S
CODY           CLOUDY    12   7  79 N17G23    29.91R WCI  -5
GREYBULL       CLOUDY    19   7  59 NW35G43   29.83R WCI  -1
WORLAND        CLOUDY    19  12  74 NW29G38   29.82R WCI   0
SHERIDAN       LGT SNOW  15  11  83 NW24      29.97R FOG     WCI  -4
BUFFALO        LGT SNOW  14  11  87 N25G37    29.84R VSB 3/4 WCI  -5
GILLETTE       LGT SNOW  14  10  84 N29G35    29.84R FOG     WCI  -7
HULETT         LGT SNOW  16  12  86 N12G20    29.85R VSB 1   WCI   3
NEWCASTLE      FLURRIES  23  16  74 NW22G31   29.73R WCI   8

$$
WYZ014>020-022>026-101>103-031000-
CENTRAL WYOMING

CITY           SKY/WX    TMP DP  RH WIND       PRES   REMARKS
BIG PINEY      FAIR      17  11  77 NW7       29.67R WCI   8
PINEDALE       PTSUNNY   21  18  86 W9        29.66R WCI  11
DUBOIS         LGT SNOW  18  16  93 SE12      29.63S WCI   5
LANDER         SNOW      20  18  92 SE9       29.74R VSB 1/2 WCI   9
RIVERTON       CLOUDY    18  12  77 N24G33    29.74R WCI   0
CASPER         LGT SNOW  18  14  84 N23G32    29.77R FOG     WCI   0
DOUGLAS        LGT SNOW  22  20  92 N12       29.75R VSB 3/4 WCI  10

$$
WYZ021-027>030-104>119-031000-
SOUTHERN WYOMING

CITY           SKY/WX    TMP DP  RH WIND       PRES   REMARKS
EVANSTON       FLURRIES  24  22  91 SW15      29.74R WCI  11
KEMMERER       FAIR      23  19  86 W15       29.70R WCI  10
FORT BRIDGER   FAIR      24  22  91 W16       29.74R WCI  11
ROCK SPRINGS   CLOUDY    24  19  81 W25       29.69R WCI   8
DIXON          LGT SNOW  32  29  90 SW18G24   29.70R WCI  20
RAWLINS        LGT SNOW  20  17  88 N10       29.66R FOG     WCI   9
SARATOGA       LGT SNOW  23  21  93 N9        29.65R VSB 1   WCI  13
LARAMIE        FAIR      27  23  85 SW15G24   29.58R WCI  15
CHEYENNE       FAIR      37  18  46 W28G37    29.53F WCI  25
TORRINGTON     LGT SNOW  30  25  81 N14       29.66R WCI  19
PINE BLUFFS    CLOUDY    30  28  93 N5        29.59S FOG     WCI  25

$$


USA.gov is the U.S. government's official web portal to all federal, state and local government web resources and services.